SAS2513 EKCH-EGPH

Flight info

Callsign SAS2513
Flight time N/A
Altitude 32000
Route ODDON DCT PETIL DCT SURAT DCT ROBEM DCT AGPED
Aircraft MD82/M-SDFGIRWY/S

Departure

Time 2026-04-30 14:04
Airport Copenhagen Kastrup Airport (EKCH)

Arrival

Time N/A
Airport Edinburgh Airport (EGPH)
Time Latitude Longitude Altitude Speed Heading
2026-04-30 13:48 55.62694 12.64600 18 ft 0 kts 282°
2026-04-30 13:52 55.62690 12.64629 20 ft 4 kts 282°
2026-04-30 13:52 55.62683 12.64674 19 ft 4 kts 291°
2026-04-30 13:52 55.62673 12.64716 22 ft 4 kts 290°
2026-04-30 13:53 55.62668 12.64745 21 ft 3 kts 282°
2026-04-30 13:53 55.62668 12.64708 21 ft 4 kts 261°
2026-04-30 13:53 55.62658 12.64679 18 ft 4 kts 221°
2026-04-30 13:53 55.62637 12.64666 18 ft 3 kts 192°
2026-04-30 13:54 55.62626 12.64662 18 ft 3 kts 192°
2026-04-30 13:57 55.62620 12.64659 18 ft 2 kts 192°
2026-04-30 13:57 55.62597 12.64653 18 ft 7 kts 184°
2026-04-30 13:57 55.62526 12.64653 18 ft 11 kts 177°
2026-04-30 13:57 55.62444 12.64670 18 ft 12 kts 173°
2026-04-30 13:58 55.62363 12.64675 18 ft 10 kts 175°
2026-04-30 13:58 55.62264 12.64862 19 ft 17 kts 124°
2026-04-30 13:58 55.62202 12.65032 18 ft 15 kts 123°
2026-04-30 13:59 55.62123 12.65080 18 ft 13 kts 206°
2026-04-30 13:59 55.62039 12.64987 18 ft 18 kts 213°
2026-04-30 13:59 55.61924 12.64854 17 ft 20 kts 212°
2026-04-30 13:59 55.61806 12.64720 19 ft 20 kts 212°
2026-04-30 14:00 55.61686 12.64584 19 ft 20 kts 213°
2026-04-30 14:00 55.61451 12.64308 20 ft 20 kts 213°
2026-04-30 14:00 55.61331 12.64170 20 ft 21 kts 213°
2026-04-30 14:01 55.61210 12.64031 18 ft 21 kts 213°
2026-04-30 14:01 55.61090 12.63891 20 ft 21 kts 213°
2026-04-30 14:01 55.60965 12.63748 18 ft 23 kts 213°
2026-04-30 14:01 55.60824 12.63588 19 ft 25 kts 213°
2026-04-30 14:02 55.60683 12.63426 19 ft 22 kts 215°
2026-04-30 14:02 55.60577 12.63271 17 ft 16 kts 222°
2026-04-30 14:02 55.60494 12.63225 19 ft 12 kts 159°
2026-04-30 14:02 55.60435 12.63318 18 ft 12 kts 134°
2026-04-30 14:03 55.60396 12.63412 19 ft 6 kts 92°
2026-04-30 14:03 55.60409 12.63459 19 ft 0 kts 41°
2026-04-30 14:03 55.60434 12.63498 19 ft 22 kts 41°
2026-04-30 14:03 55.60708 12.63909 19 ft 84 kts 40°
2026-04-30 14:04 55.61317 12.64847 19 ft 143 kts 43°
2026-04-30 14:04 55.62193 12.66199 172 ft 180 kts 38°
2026-04-30 14:04 55.63101 12.67582 1057 ft 170 kts 36°
2026-04-30 14:04 55.64093 12.69057 1191 ft 208 kts 37°
2026-04-30 14:05 55.65185 12.70660 1918 ft 197 kts 32°
2026-04-30 14:05 55.66399 12.71664 2590 ft 190 kts
2026-04-30 14:05 55.67698 12.71614 3353 ft 186 kts 353°
2026-04-30 14:05 55.68882 12.71416 3766 ft 205 kts 353°
2026-04-30 14:06 55.70255 12.71166 3782 ft 237 kts 353°
2026-04-30 14:06 55.73617 12.70485 5057 ft 252 kts 353°
2026-04-30 14:07 55.77222 12.69701 6221 ft 268 kts 354°
2026-04-30 14:07 55.78990 12.69307 6789 ft 237 kts 354°
2026-04-30 14:07 55.80415 12.68983 7280 ft 229 kts 355°
2026-04-30 14:08 55.83185 12.66563 8426 ft 238 kts 318°
2026-04-30 14:08 55.84339 12.64432 9004 ft 240 kts 319°
2026-04-30 14:08 55.86025 12.59241 10044 ft 265 kts 282°
2026-04-30 14:09 55.86277 12.55891 10340 ft 281 kts 282°
2026-04-30 14:09 55.86594 12.52780 10580 ft 289 kts 286°
2026-04-30 14:09 55.87584 12.46200 11064 ft 290 kts 291°
2026-04-30 14:10 55.88218 12.42788 11329 ft 290 kts 293°
2026-04-30 14:10 55.88905 12.39392 11601 ft 292 kts 295°
2026-04-30 14:10 55.89597 12.36026 11869 ft 295 kts 289°
2026-04-30 14:10 55.89763 12.32696 12121 ft 312 kts 264°
2026-04-30 14:11 55.89055 12.28952 12422 ft 328 kts 244°
2026-04-30 14:11 55.88064 12.25720 12696 ft 339 kts 241°
2026-04-30 14:11 55.86860 12.22014 12921 ft 352 kts 240°
2026-04-30 14:11 55.85596 12.18207 13182 ft 363 kts 240°
2026-04-30 14:12 55.84281 12.14270 13359 ft 379 kts 240°
2026-04-30 14:12 55.82917 12.10127 13637 ft 393 kts 241°
2026-04-30 14:12 55.81560 12.05901 14258 ft 397 kts 242°
2026-04-30 14:12 55.80643 12.02993 14628 ft 399 kts 242°
2026-04-30 14:13 55.78923 11.97470 15446 ft 362 kts 242°
2026-04-30 14:13 55.77880 11.94110 15488 ft 353 kts 243°
2026-04-30 14:13 55.76662 11.90131 15288 ft 373 kts 243°
2026-04-30 14:13 55.75443 11.86140 15986 ft 368 kts 243°
2026-04-30 14:14 55.74346 11.82555 16112 ft 380 kts 243°
2026-04-30 14:14 55.73053 11.78357 16209 ft 395 kts 242°
2026-04-30 14:14 55.71703 11.74010 16364 ft 408 kts 242°
2026-04-30 14:14 55.70320 11.69591 16872 ft 410 kts 242°
2026-04-30 14:15 55.68925 11.65168 17354 ft 413 kts 241°
2026-04-30 14:15 55.67501 11.60722 17872 ft 416 kts 241°
2026-04-30 14:15 55.66069 11.56261 18367 ft 418 kts 241°
2026-04-30 14:15 55.64630 11.51760 18832 ft 422 kts 242°
2026-04-30 14:16 55.63193 11.47227 19321 ft 422 kts 242°
2026-04-30 14:16 55.61908 11.43156 19710 ft 424 kts 242°
2026-04-30 14:16 55.60700 11.38487 20147 ft 423 kts 257°
2026-04-30 14:16 55.60228 11.33516 20606 ft 420 kts 269°
2026-04-30 14:17 55.60059 11.28358 21041 ft 421 kts 271°
2026-04-30 14:17 55.59948 11.23473 21480 ft 422 kts 271°
2026-04-30 14:17 55.59833 11.18288 22032 ft 420 kts 270°
2026-04-30 14:17 55.59711 11.13109 22433 ft 424 kts 270°
2026-04-30 14:18 55.59571 11.07899 22883 ft 425 kts 270°
2026-04-30 14:18 55.59409 11.02672 23301 ft 427 kts 269°
2026-04-30 14:18 55.59048 10.92147 24124 ft 430 kts 269°
2026-04-30 14:19 55.58693 10.82142 24789 ft 433 kts 269°
2026-04-30 14:19 55.58505 10.76823 25101 ft 435 kts 269°
2026-04-30 14:19 55.58318 10.71483 25446 ft 436 kts 269°
2026-04-30 14:20 55.58146 10.66118 25758 ft 437 kts 272°
2026-04-30 14:20 55.58306 10.61329 26035 ft 436 kts 280°
2026-04-30 14:20 55.59238 10.50734 26660 ft 438 kts 282°
2026-04-30 14:21 55.59743 10.45401 27002 ft 439 kts 282°
2026-04-30 14:21 55.60229 10.40126 27294 ft 441 kts 282°
2026-04-30 14:21 55.61171 10.29344 27917 ft 445 kts 281°
2026-04-30 14:22 55.61604 10.24147 28182 ft 447 kts 281°
2026-04-30 14:22 55.62495 10.13206 28690 ft 453 kts 281°
2026-04-30 14:22 55.62945 10.07682 29114 ft 451 kts 281°
2026-04-30 14:23 55.63835 9.96888 30611 ft 434 kts 281°
2026-04-30 14:23 55.64683 9.86508 31665 ft 423 kts 280°
2026-04-30 14:24 55.65488 9.76087 31927 ft 431 kts 280°
2026-04-30 14:24 55.65890 9.70817 31964 ft 433 kts 280°
2026-04-30 14:25 55.67471 9.50442 31991 ft 426 kts 280°
2026-04-30 14:26 55.68650 9.35411 32021 ft 426 kts 280°
2026-04-30 14:27 55.69852 9.19848 32027 ft 427 kts 280°
2026-04-30 14:27 55.70584 9.09951 32027 ft 427 kts 279°
2026-04-30 14:28 55.71670 8.94595 32022 ft 427 kts 279°
2026-04-30 14:28 55.72414 8.84128 32025 ft 428 kts 279°
2026-04-30 14:29 55.73742 8.65503 32030 ft 428 kts 279°
2026-04-30 14:31 55.75600 8.39335 32035 ft 427 kts 278°
2026-04-30 14:31 55.76602 8.23636 32039 ft 426 kts 278°
2026-04-30 14:32 55.77614 8.07922 32040 ft 427 kts 278°
2026-04-30 14:33 55.78301 7.97438 32042 ft 427 kts 278°
2026-04-30 14:33 55.79334 7.81768 32035 ft 427 kts 278°
2026-04-30 14:34 55.80019 7.71319 32044 ft 428 kts 278°
2026-04-30 14:34 55.80668 7.60813 32040 ft 428 kts 277°
2026-04-30 14:35 55.81583 7.45022 32042 ft 428 kts 277°
2026-04-30 14:36 55.82200 7.34483 32037 ft 428 kts 277°
2026-04-30 14:36 55.82829 7.23947 32043 ft 428 kts 277°
2026-04-30 14:37 55.83454 7.13398 32042 ft 428 kts 277°
2026-04-30 14:37 55.84077 7.02855 32042 ft 429 kts 277°
2026-04-30 14:38 55.84679 6.92364 32040 ft 429 kts 276°
2026-04-30 14:38 55.85229 6.81793 32042 ft 429 kts 276°
2026-04-30 14:39 55.85751 6.71780 32037 ft 429 kts 276°
2026-04-30 14:39 55.86328 6.61204 32034 ft 429 kts 276°
2026-04-30 14:40 55.87190 6.45327 32032 ft 429 kts 276°
2026-04-30 14:40 55.87751 6.34734 32032 ft 429 kts 276°
2026-04-30 14:41 55.88309 6.24141 32037 ft 429 kts 276°
2026-04-30 14:41 55.88821 6.13528 32028 ft 429 kts 275°
2026-04-30 14:42 55.89268 6.03623 32022 ft 429 kts 275°
2026-04-30 14:42 55.89772 5.92958 32019 ft 430 kts 275°
2026-04-30 14:43 55.90284 5.82328 32035 ft 431 kts 275°
2026-04-30 14:43 55.90774 5.72059 32034 ft 431 kts 275°
2026-04-30 14:44 55.91173 5.63663 32021 ft 431 kts 275°
2026-04-30 14:44 55.91676 5.53016 32018 ft 430 kts 275°
2026-04-30 14:45 55.91843 5.42351 32032 ft 431 kts 270°
2026-04-30 14:45 55.92090 5.31674 32018 ft 432 kts 275°
2026-04-30 14:46 55.92686 5.21030 32032 ft 431 kts 276°
2026-04-30 14:46 55.93338 5.10977 32021 ft 431 kts 277°
2026-04-30 14:47 55.94011 5.00997 32016 ft 431 kts 275°
2026-04-30 14:47 55.93999 4.90316 32022 ft 430 kts 267°
2026-04-30 14:48 55.93700 4.80765 32011 ft 432 kts 268°
2026-04-30 14:48 55.93507 4.70049 32018 ft 432 kts 269°
2026-04-30 14:49 55.93391 4.59985 32018 ft 430 kts 269°
2026-04-30 14:49 55.93274 4.49353 32014 ft 427 kts 269°
2026-04-30 14:50 55.93080 4.33474 32019 ft 429 kts 269°
2026-04-30 14:51 55.92843 4.17468 32015 ft 429 kts 268°
2026-04-30 14:52 55.92536 4.02108 31991 ft 430 kts 268°
2026-04-30 14:52 55.92244 3.86051 31996 ft 431 kts 268°
2026-04-30 14:53 55.91940 3.70115 31999 ft 427 kts 268°
2026-04-30 14:54 55.91509 3.48951 32001 ft 429 kts 264°
2026-04-30 14:55 55.90205 3.33212 31986 ft 427 kts 259°
2026-04-30 14:56 55.88315 3.12209 31980 ft 431 kts 261°
2026-04-30 14:57 55.87000 2.96396 32191 ft 426 kts 261°
2026-04-30 14:57 55.86119 2.85883 32379 ft 433 kts 261°
2026-04-30 14:58 55.85287 2.75897 32415 ft 436 kts 260°
2026-04-30 14:58 55.83958 2.60788 32418 ft 433 kts 259°
2026-04-30 15:00 55.81536 2.34479 32427 ft 433 kts 259°
2026-04-30 15:01 55.79625 2.13339 32415 ft 432 kts 259°
2026-04-30 15:01 55.78167 1.97544 32404 ft 430 kts 258°
2026-04-30 15:02 55.77135 1.87059 32404 ft 431 kts 258°
2026-04-30 15:03 55.74562 1.60702 32403 ft 433 kts 258°
2026-04-30 15:04 55.72156 1.35641 32394 ft 432 kts 258°
2026-04-30 15:06 55.69536 1.09988 32394 ft 432 kts 256°
2026-04-30 15:07 55.67597 0.91369 32380 ft 432 kts 257°
2026-04-30 15:08 55.65324 0.69268 32376 ft 432 kts 256°
2026-04-30 15:09 55.62612 0.43775 32361 ft 430 kts 255°
2026-04-30 15:10 55.60313 0.23106 32362 ft 429 kts 255°
2026-04-30 15:11 55.57028 -0.06984 32347 ft 431 kts 255°
2026-04-30 15:13 55.54140 -0.32185 32343 ft 428 kts 254°
2026-04-30 15:14 55.50077 -0.67174 32320 ft 430 kts 254°
2026-04-30 15:17 55.42955 -1.10990 32324 ft 419 kts 232°
2026-04-30 15:19 55.31058 -1.43351 32307 ft 418 kts 234°